Find Starlink 32108

NORAD ID: 59682 Int'l Des: 2024-086 Owner: SPXS Country: US Constellation: starlink operational
LEOCIRCULAR

リアルタイム位置

3D地球を読み込み中...

Starlink 32108について

説明を読み込み中...

次回通過

Passes for default location (London). Set your location on the main map for personalized predictions.

高度履歴

Loading altitude history...

軌道要素

1 59682U 24086A 26125.01096188 .00000603 00000-0 31456-4 0 9991
2 59682 43.0022 105.4265 0001248 248.3932 111.6786 15.27573357112674
Epoch: May 5, 2026 • Age: 23 hours

現在のステータス

高度 487.4 km
速度 7.62 km/s
衛星直下点 -20.52°S, 142.49°W
打ち上げ日 May 8, 2024
運用期間 1.9 years
タイプ internet

技術仕様

分類 Payload
質量 730.00 kg
乾燥質量 700.00 kg
総質量 730.00 kg
長さ 0.30 m
直径 4.10 m
スパン 29.00 m
形状 Box + pan
製造者 SPXS
バスタイプ Starlink V2M
フェーズステータス In Orbit
所有者/国 SPXS/US

Most Searched